Retour au catalogue

STARLINK-11736

ActifCommunicationsVLEO
NORAD 64317·PAYLOAD·🇺🇸 United States

Lancé Jun 10, 2025 depuis Cape Canaveral Space Force Station

Loading…

Prochains Passages (prochaines 24 heures)

TLE

FraisSource: CelesTrak SupGP

Époque: Sep 14, 2026, 22:46 UTC

1 64317C 25124A   26257.94909722 -.00095312  00000+0 -74019-3 0  2571
2 64317  43.0004 328.7137 0001642 257.6558 214.0287 15.70888608    12

Suivez STARLINK-11736 en temps réel avec AllMySat

Download on the App Store